Location: Cornospital
(48.0620°N, 3.3837°W)
Time: 21:24:17
(UTC+00:00)

Cosmos 2360 Rocket - Pass Details

Date: 17 June 2021
Orbit: 835 x 843 km, 71.0° (Epoch: 02 August)

Event Time Altitude Azimuth Distance (km) Brightness Sun altitude
Rises 23:10:31 0° 244° (WSW) 3,387 5.2 -17.1°
Reaches altitude 10° 23:13:20 10° 256° (WSW) 2,454 4.6 -17.2°
Maximum altitude 23:18:04 27° 313° (NW) 1,561 4.2 -17.4°
Drops below altitude 10° 23:22:50 10° 11° (N) 2,461 5.6 -17.6°
Sets 23:25:40 0° 24° (NNE) 3,398 6.3 -17.7°
